User: anonymous   Login
Location: Columbia
(38.9520°N, 92.3340°W)
Time: 12:08:00
(UTC-05:00)
Language:

SJ-11-01 - Orbit

View from above orbital plane
View from above orbital plane
View from above satellite
View from above satellite

Ground track
Ground track

The orbit data is extracted from the following two-line orbital elements,

1 36088U 09061A   15245.37372942  .00000257  00000-0  63686-4 0  9992
2 36088  98.2325 290.7473 0012194 140.6377 219.5714 14.59687881309258
Epoch (UTC): 02 September 2015 08:58:10
Eccentricity: 0.0012194
inclination: 98.2325°
perigee height: 685 km
apogee height: 703 km
right ascension of ascending node: 290.7473°
argument of perigee: 140.6377°
revolutions per day: 14.59687881
mean anomaly at epoch: 219.5714°
orbit number at epoch: 30925

The dashed part of the orbit path shows where the satellite is in the earth's shadow,  

DLR